COSMOS 864

导读

**COSMOS 864卫星摘要** COSMOS 864(宇宙864)是苏联/俄罗斯"宇宙"系列卫星之一,于1976年10月29日发射。"宇宙"系列是世界上规模最大的卫星家族,涵盖多领域任务,多数承担军事用途,编号包含大量试验任务及失利探测器。该系列通过统一编号模糊任务属性,增强保密性,为苏联航天探索积累了重要技术经验,是冷战时期航天发展的典型见证。

Basic Information
目录编号:
9509
目录名称:
COSMOS 864
国际标识:
1976-108A
轨道中心:
EARTH
卫星名称:
COSMOS 864
卫星全名:
--
卫星状态:
在轨 (已飞行18127 天)
发射日期:
1976-10-29 UTC
国别 :
俄罗斯(独联体) (CIS)
星等 :
--
Orbit Information
数据来源 国际轨道数据 AOE轨道数据
星历时间 2026-06-16T08:54:12+0800
11小时前
查看轨道信息
2026-06-16T17:00:00+0800
3小时前
查看轨道信息
半长轴 7357.741km 7357.741km
偏心率 0.003063 0.0030738
轨道倾角 82.940° 82.942°
近地点辐角 145.483° 144.813°
升交点赤经 150.430° 150.181°
平近点角 279.218° 149.619°
近地点 957.067km 956.987km
远地点 1002.141km 1002.221km
周期 104.683分钟 104.683分钟
每日圈数 13.755808 13.755807
Detailed Information
使用方式:
暂无
2D Orbit Map
3D Orbit Map
Orbit Altitude Analysis Chart
Orbit Inclination Analysis Chart
Orbit Comprehensive Analysis Chart
View Comprehensive Chart